When you browse on this site, cookies collect data to enhance your experience and personalize the content and advertising you see.
Visit our Privacy Policy to learn more. By continuing to use the site, you agree to this use of cookies and data.
  • In Portugal
  • List of Countries
  • For 7 days
  • Water Temperature
  • Satellite Maps
  • Weather Map
  • Weather Widgets
  • user-avatar
    Login

    Hourly Weather Revki

    Today, 25 March, Monday

    Time Temperature Precipitation Wind Pressure Humidity
    00:00 +2°C° 0 mm 2 mps 745 mmHg 75%
    01:00 +1°C° 0 mm 2 mps 744 mmHg 77%
    02:00 -1°C° 0 mm 2 mps 744 mmHg 82%
    03:00 -1°C° 0 mm 2 mps 743 mmHg 82%
    04:00 -1°C° 0 mm 2 mps 743 mmHg 81%
    05:00 -1°C° 0 mm 2 mps 742 mmHg 81%
    06:00 -1°C° 0 mm 2 mps 742 mmHg 78%
    07:00 +1°C° 0 mm 2 mps 742 mmHg 75%
    08:00 +1°C° 0 mm 3 mps 741 mmHg 72%
    09:00 +2°C° 0 mm 3 mps 741 mmHg 65%
    10:00 +3°C° 0 mm 3 mps 741 mmHg 59%
    11:00 +5°C° 0 mm 3 mps 741 mmHg 53%
    12:00 +5°C° 0 mm 3 mps 740 mmHg 51%
    13:00 +7°C° 0 mm 3 mps 740 mmHg 49%
    14:00 +8°C° 0 mm 3 mps 739 mmHg 46%
    15:00 +7°C° 0.1 mm 3 mps 739 mmHg 48%
    16:00 +7°C° 0.1 mm 3 mps 739 mmHg 49%
    17:00 +7°C° 0.1 mm 3 mps 739 mmHg 50%
    18:00 +5°C° 0.1 mm 3 mps 739 mmHg 57%
    19:00 +5°C° 0.1 mm 2 mps 739 mmHg 63%
    20:00 +4°C° 0.1 mm 2 mps 739 mmHg 70%
    21:00 +3°C° 0 mm 2 mps 739 mmHg 73%
    22:00 +3°C° 0 mm 2 mps 739 mmHg 77%
    23:00 +2°C° 0 mm 2 mps 739 mmHg 80%

    Tomorrow, 26 March, Tuesday

    Time Temperature Precipitation Wind Pressure Humidity
    00:00 +1°C° 0 mm 3 mps 740 mmHg 83%
    01:00 0°C° 0 mm 3 mps 740 mmHg 86%
    02:00 -1°C° 0 mm 4 mps 740 mmHg 89%
    03:00 -1°C° 0.1 mm 4 mps 741 mmHg 86%
    04:00 -2°C° 0.1 mm 4 mps 741 mmHg 82%
    05:00 -2°C° 0.1 mm 5 mps 741 mmHg 79%
    06:00 -2°C° 0 mm 5 mps 741 mmHg 77%
    07:00 -4°C° 0 mm 5 mps 742 mmHg 75%
    08:00 -4°C° 0 mm 5 mps 742 mmHg 73%
    09:00 -2°C° 0 mm 5 mps 742 mmHg 67%
    10:00 -1°C° 0 mm 5 mps 742 mmHg 61%
    11:00 +1°C° 0 mm 5 mps 742 mmHg 55%
    12:00 +1°C° 0.2 mm 5 mps 742 mmHg 55%
    13:00 +1°C° 0.2 mm 5 mps 742 mmHg 55%
    14:00 +2°C° 0.2 mm 6 mps 741 mmHg 55%
    15:00 +1°C° 0.3 mm 5 mps 741 mmHg 57%
    16:00 +1°C° 0.3 mm 4 mps 741 mmHg 60%
    17:00 +1°C° 0.3 mm 4 mps 740 mmHg 62%
    18:00 +1°C° 0.2 mm 3 mps 741 mmHg 69%
    19:00 0°C° 0.2 mm 3 mps 741 mmHg 76%
    20:00 -1°C° 0.2 mm 2 mps 741 mmHg 84%
    21:00 -1°C° 0 mm 3 mps 742 mmHg 83%
    22:00 -2°C° 0 mm 3 mps 743 mmHg 83%
    23:00 -3°C° 0 mm 4 mps 743 mmHg 83%

    Day after tomorrow, 27 March, Wednesday

    Time Temperature Precipitation Wind Pressure Humidity
    00:00 -4°C° 0 mm 4 mps 744 mmHg 83%
    01:00 -4°C° 0 mm 4 mps 745 mmHg 83%
    02:00 -4°C° 0 mm 4 mps 745 mmHg 84%
    03:00 -5°C° 0 mm 4 mps 746 mmHg 83%
    04:00 -5°C° 0 mm 4 mps 747 mmHg 83%
    05:00 -5°C° 0 mm 4 mps 747 mmHg 82%
    06:00 -5°C° 0 mm 4 mps 748 mmHg 80%
    07:00 -5°C° 0 mm 5 mps 749 mmHg 77%
    08:00 -5°C° 0 mm 5 mps 749 mmHg 75%
    09:00 -4°C° 0 mm 5 mps 750 mmHg 71%
    10:00 -2°C° 0 mm 5 mps 750 mmHg 68%
    11:00 -1°C° 0 mm 5 mps 751 mmHg 65%
    12:00 0°C° 0 mm 5 mps 751 mmHg 61%
    13:00 0°C° 0 mm 5 mps 751 mmHg 58%
    14:00 +1°C° 0 mm 5 mps 752 mmHg 55%
    15:00 +1°C° 0 mm 4 mps 752 mmHg 52%
    16:00 +1°C° 0 mm 4 mps 752 mmHg 49%
    17:00 +1°C° 0 mm 4 mps 752 mmHg 46%
    18:00 +1°C° 0 mm 3 mps 753 mmHg 51%
    19:00 -1°C° 0 mm 3 mps 753 mmHg 57%
    20:00 -2°C° 0 mm 2 mps 754 mmHg 62%
    21:00 -2°C° 0 mm 2 mps 754 mmHg 62%
    22:00 0°C° 0 mm 1 mps 755 mmHg 62%
    23:00 0°C° 0 mm 1 mps 755 mmHg 62%

    28 March, Thursday

    Time Temperature Precipitation Wind Pressure Humidity
    00:00 0°C° 0 mm 1 mps 755 mmHg 61%
    01:00 0°C° 0 mm 1 mps 755 mmHg 61%
    02:00 -1°C° 0 mm 1 mps 756 mmHg 60%
    03:00 -1°C° 0 mm 1 mps 756 mmHg 61%
    04:00 -1°C° 0 mm 1 mps 756 mmHg 61%
    05:00 -1°C° 0 mm 1 mps 756 mmHg 62%
    06:00 0°C° 0 mm 1 mps 756 mmHg 59%
    07:00 +1°C° 0 mm 1 mps 757 mmHg 56%
    08:00 +1°C° 0 mm 2 mps 757 mmHg 53%
    09:00 +2°C° 0 mm 2 mps 757 mmHg 49%
    10:00 +4°C° 0 mm 2 mps 757 mmHg 45%
    11:00 +5°C° 0 mm 2 mps 757 mmHg 42%
    12:00 +6°C° 0 mm 2 mps 757 mmHg 43%
    13:00 +7°C° 0 mm 3 mps 757 mmHg 44%
    14:00 +8°C° 0 mm 3 mps 757 mmHg 45%
    15:00 +7°C° 0 mm 3 mps 757 mmHg 51%
    16:00 +7°C° 0 mm 2 mps 756 mmHg 58%
    17:00 +7°C° 0 mm 2 mps 756 mmHg 64%
    18:00 +5°C° 0 mm 2 mps 756 mmHg 72%
    19:00 +4°C° 0 mm 2 mps 756 mmHg 80%
    20:00 +3°C° 0 mm 2 mps 756 mmHg 88%
    21:00 +2°C° 0 mm 2 mps 756 mmHg 90%
    22:00 +2°C° 0 mm 2 mps 756 mmHg 92%
    23:00 +2°C° 0 mm 2 mps 756 mmHg 93%

    29 March, Friday

    Time Temperature Precipitation Wind Pressure Humidity
    00:00 +1°C° 0 mm 2 mps 756 mmHg 94%
    01:00 +1°C° 0 mm 2 mps 756 mmHg 94%
    02:00 -1°C° 0 mm 2 mps 756 mmHg 95%
    03:00 -1°C° 0 mm 2 mps 756 mmHg 95%
    04:00 -1°C° 0 mm 3 mps 756 mmHg 95%
    05:00 0°C° 0 mm 3 mps 756 mmHg 95%
    06:00 0°C° 0 mm 3 mps 756 mmHg 91%
    07:00 0°C° 0 mm 4 mps 755 mmHg 86%
    08:00 +1°C° 0 mm 4 mps 755 mmHg 81%
    09:00 +4°C° 0 mm 4 mps 755 mmHg 77%
    10:00 +6°C° 0 mm 5 mps 755 mmHg 73%
    11:00 +8°C° 0 mm 5 mps 755 mmHg 69%
    12:00 +9°C° 0 mm 5 mps 755 mmHg 67%
    13:00 +10°C° 0 mm 5 mps 754 mmHg 65%
    14:00 +12°C° 0 mm 5 mps 754 mmHg 63%
    15:00 +12°C° 0 mm 5 mps 754 mmHg 64%
    16:00 +12°C° 0 mm 5 mps 753 mmHg 65%
    17:00 +11°C° 0 mm 4 mps 753 mmHg 66%
    18:00 +10°C° 0 mm 4 mps 753 mmHg 73%
    19:00 +8°C° 0 mm 3 mps 753 mmHg 79%
    20:00 +7°C° 0 mm 3 mps 753 mmHg 85%
    21:00 +5°C° 0 mm 3 mps 753 mmHg 86%
    22:00 +5°C° 0 mm 3 mps 753 mmHg 87%
    23:00 +4°C° 0 mm 3 mps 753 mmHg 88%

    30 March, Saturday

    Time Temperature Precipitation Wind Pressure Humidity
    00:00 +4°C° 0 mm 3 mps 752 mmHg 89%
    01:00 +4°C° 0 mm 3 mps 752 mmHg 91%
    02:00 +3°C° 0 mm 3 mps 752 mmHg 93%
    03:00 +3°C° 0 mm 3 mps 752 mmHg 94%
    04:00 +3°C° 0 mm 4 mps 751 mmHg 94%
    05:00 +3°C° 0 mm 4 mps 751 mmHg 95%
    06:00 +3°C° 0 mm 4 mps 751 mmHg 93%
    07:00 +4°C° 0 mm 4 mps 751 mmHg 92%
    08:00 +3°C° 0 mm 5 mps 751 mmHg 90%
    09:00 +5°C° 0 mm 5 mps 751 mmHg 86%
    10:00 +6°C° 0 mm 5 mps 750 mmHg 82%
    11:00 +7°C° 0 mm 5 mps 750 mmHg 78%
    12:00 +8°C° 0 mm 5 mps 750 mmHg 72%
    13:00 +10°C° 0 mm 5 mps 750 mmHg 66%
    14:00 +12°C° 0 mm 5 mps 749 mmHg 60%
    15:00 +12°C° 0 mm 5 mps 749 mmHg 61%
    16:00 +12°C° 0 mm 4 mps 748 mmHg 61%
    17:00 +12°C° 0 mm 4 mps 748 mmHg 61%
    18:00 +11°C° 0 mm 4 mps 748 mmHg 69%
    19:00 +9°C° 0 mm 3 mps 748 mmHg 76%
    20:00 +8°C° 0 mm 2 mps 747 mmHg 84%
    21:00 +7°C° 0 mm 2 mps 747 mmHg 86%
    22:00 +7°C° 0 mm 2 mps 747 mmHg 89%
    23:00 +6°C° 0 mm 2 mps 747 mmHg 91%
    Show more